| time (UTC) | temp F | wind direction | speed MPH | gust MPH | rain 1hr in | rain 24hr in | rain mn in | humidity % | barometer mb |
| 20260509223006 | 72 | 318 | 8.0 | 19.0 | 0.00 | 0.00 | 0.00 | 29 | 1003.5 |
| 20260509221506 | 72 | 295 | 8.0 | 20.0 | 0.00 | 0.00 | 0.00 | 30 | 1003.3 |
| 20260509220005 | 73 | 311 | 8.0 | 20.0 | 0.00 | 0.00 | 0.00 | 29 | 1002.9 |
| 20260509214504 | 74 | 303 | 9.0 | 16.0 | 0.00 | 0.00 | 0.00 | 28 | 1002.7 |
| 20260509213005 | 74 | 262 | 5.0 | 19.0 | 0.00 | 0.00 | 0.00 | 31 | 1002.5 |
| 20260509211503 | 74 | 293 | 10.0 | 19.0 | 0.00 | 0.00 | 0.00 | 30 | 1002.2 |
| 20260509210002 | 74 | 279 | 8.0 | 18.0 | 0.00 | 0.00 | 0.00 | 30 | 1002.0 |
| 20260509204605 | 74 | 246 | 5.0 | 18.0 | 0.00 | 0.00 | 0.00 | 31 | 1002.1 |
| 20260509203159 | 73 | 248 | 12.0 | 20.0 | 0.00 | 0.00 | 0.00 | 29 | 1002.1 |
| 20260509201600 | 73 | 285 | 8.0 | 18.0 | 0.00 | 0.00 | 0.00 | 30 | 1002.3 |
| 20260509200058 | 73 | 305 | 7.0 | 14.0 | 0.00 | 0.00 | 0.00 | 31 | 1002.5 |
| 20260509194558 | 72 | 300 | 10.0 | 17.0 | 0.00 | 0.00 | 0.00 | 30 | 1002.5 |
| 20260509193059 | 72 | 255 | 5.0 | 14.0 | 0.00 | 0.00 | 0.00 | 30 | 1002.4 |
| 20260509191606 | 73 | 281 | 6.0 | 14.0 | 0.00 | 0.00 | 0.00 | 29 | 1002.4 |
| 20260509190100 | 73 | 274 | 5.0 | 13.0 | 0.00 | 0.00 | 0.00 | 29 | 1002.3 |
| 20260509184554 | 74 | 275 | 5.0 | 11.0 | 0.00 | 0.00 | 0.00 | 29 | 1002.3 |
| 20260509183050 | 72 | 241 | 6.0 | 11.0 | 0.00 | 0.00 | 0.00 | 31 | 1002.2 |
| 20260509181555 | 70 | 280 | 3.0 | 13.0 | 0.00 | 0.00 | 0.00 | 33 | 1002.4 |
| 20260509180047 | 70 | 273 | 6.0 | 11.0 | 0.00 | 0.00 | 0.00 | 31 | 1002.5 |
| 20260509174556 | 70 | 277 | 7.0 | 16.0 | 0.00 | 0.00 | 0.00 | 31 | 1002.6 |
| 20260509173052 | 71 | 310 | 7.0 | 18.0 | 0.00 | 0.00 | 0.00 | 31 | 1002.7 |
| 20260509171550 | 71 | 269 | 8.0 | 20.0 | 0.00 | 0.00 | 0.00 | 33 | 1002.6 |
| 20260509170044 | 70 | 278 | 3.0 | 9.0 | 0.00 | 0.00 | 0.00 | 47 | 1002.7 |
| 20260509164537 | 68 | 287 | 5.0 | 11.0 | 0.00 | 0.00 | 0.00 | 52 | 1002.7 |
| 20260509163034 | 67 | 280 | 5.0 | 14.0 | 0.00 | 0.00 | 0.00 | 53 | 1002.7 |
| 20260509161532 | 66 | 252 | 3.0 | 12.0 | 0.00 | 0.00 | 0.00 | 53 | 1002.8 |
| 20260509160032 | 66 | 301 | 3.0 | 10.0 | 0.00 | 0.00 | 0.00 | 57 | 1002.6 |
| 20260509154532 | 65 | 284 | 2.0 | 8.0 | 0.00 | 0.00 | 0.00 | 59 | 1002.7 |
| 20260509153029 | 64 | 262 | 3.0 | 12.0 | 0.00 | 0.00 | 0.00 | 60 | 1002.6 |
| 20260509151523 | 64 | 265 | 5.0 | 8.0 | 0.00 | 0.00 | 0.00 | 61 | 1002.6 |
| 20260509150022 | 63 | 257 | 6.0 | 12.0 | 0.00 | 0.00 | 0.00 | 63 | 1002.7 |
| 20260509144517 | 62 | 268 | 6.0 | 15.0 | 0.00 | 0.00 | 0.00 | 65 | 1002.6 |
| 20260509143020 | 61 | 251 | 6.0 | 13.0 | 0.00 | 0.00 | 0.00 | 67 | 1002.6 |
| 20260509141514 | 60 | 264 | 4.0 | 9.0 | 0.00 | 0.00 | 0.00 | 68 | 1002.5 |
| 20260509140010 | 59 | 277 | 6.0 | 13.0 | 0.00 | 0.00 | 0.00 | 70 | 1002.5 |
| 20260509134507 | 59 | 286 | 3.0 | 11.0 | 0.00 | 0.00 | 0.00 | 72 | 1002.3 |
| 20260509133004 | 58 | 275 | 3.0 | 10.0 | 0.00 | 0.00 | 0.00 | 74 | 1002.3 |
| 20260509131603 | 57 | 278 | 5.0 | 16.0 | 0.00 | 0.00 | 0.00 | 75 | 1002.7 |
| 20260509130108 | 56 | 268 | 5.0 | 12.0 | 0.00 | 0.00 | 0.00 | 76 | 1002.6 |
| 20260509124611 | 56 | 260 | 2.0 | 9.0 | 0.00 | 0.00 | 0.00 | 77 | 1002.5 |
| 20260509123059 | 55 | 264 | 4.0 | 10.0 | 0.00 | 0.00 | 0.00 | 78 | 1002.6 |
| 20260509121612 | 55 | 259 | 5.0 | 15.0 | 0.00 | 0.00 | 0.00 | 79 | 1002.4 |
| 20260509120057 | 54 | 273 | 3.0 | 9.0 | 0.00 | 0.00 | 0.00 | 80 | 1002.6 |
| 20260509114556 | 54 | 257 | 4.0 | 10.0 | 0.00 | 0.00 | 0.00 | 81 | 1002.4 |
| 20260509113058 | 54 | 233 | 2.0 | 8.0 | 0.00 | 0.00 | 0.00 | 81 | 1002.2 |
| 20260509111603 | 54 | 223 | 3.0 | 7.0 | 0.00 | 0.00 | 0.00 | 81 | 1002.2 |
| 20260509110054 | 54 | 283 | 4.0 | 10.0 | 0.00 | 0.00 | 0.00 | 80 | 1002.1 |
| 20260509104552 | 54 | 248 | 4.0 | 9.0 | 0.00 | 0.01 | 0.00 | 80 | 1001.9 |
| 20260509101550 | 54 | 212 | 4.0 | 8.0 | 0.00 | 0.01 | 0.00 | 81 | 1001.8 |
| 20260509100044 | 53 | 251 | 2.0 | 6.0 | 0.00 | 0.01 | 0.00 | 81 | 1002.1 |
| 20260509094543 | 54 | 207 | 2.0 | 6.0 | 0.00 | 0.01 | 0.00 | 81 | 1002.3 |
| 20260509093041 | 53 | 250 | 1.0 | 5.0 | 0.00 | 0.01 | 0.00 | 82 | 1002.6 |
| 20260509091540 | 53 | 260 | 2.0 | 7.0 | 0.00 | 0.01 | 0.00 | 82 | 1002.7 |
| 20260509090044 | 53 | 212 | 3.0 | 7.0 | 0.00 | 0.01 | 0.00 | 82 | 1002.5 |
| 20260509084542 | 53 | 278 | 2.0 | 6.0 | 0.00 | 0.01 | 0.00 | 82 | 1002.7 |
| 20260509083046 | 53 | 255 | 1.0 | 8.0 | 0.00 | 0.01 | 0.00 | 81 | 1002.7 |
| 20260509081535 | 53 | 222 | 2.0 | 9.0 | 0.00 | 0.01 | 0.00 | 81 | 1002.6 |
| 20260509080034 | 54 | 224 | 3.0 | 9.0 | 0.00 | 0.01 | 0.00 | 80 | 1002.6 |
| 20260509074532 | 54 | 239 | 2.0 | 8.0 | 0.00 | 0.01 | 0.00 | 80 | 1002.7 |
| 20260509073029 | 54 | 259 | 2.0 | 7.0 | 0.00 | 0.01 | 0.00 | 79 | 1002.9 |
| 20260509071526 | 54 | 260 | 1.0 | 6.0 | 0.00 | 0.01 | 0.00 | 78 | 1003.1 |
| 20260509070025 | 55 | 276 | 2.0 | 8.0 | 0.00 | 0.01 | 0.00 | 77 | 1003.4 |
| 20260509064522 | 55 | 194 | 3.0 | 8.0 | 0.00 | 0.01 | 0.00 | 77 | 1003.5 |
| 20260509063021 | 55 | 257 | 3.0 | 9.0 | 0.00 | 0.01 | 0.00 | 76 | 1003.7 |
| 20260509061522 | 56 | 228 | 2.0 | 11.0 | 0.00 | 0.01 | 0.00 | 76 | 1003.7 |
| 20260509060017 | 56 | 242 | 6.0 | 10.0 | 0.00 | 0.01 | 0.00 | 76 | 1004.0 |
| 20260509054515 | 56 | 232 | 4.0 | 9.0 | 0.00 | 0.01 | 0.00 | 76 | 1004.1 |
| 20260509053013 | 57 | 264 | 2.0 | 11.0 | 0.00 | 0.01 | 0.00 | 75 | 1004.0 |
| 20260509051511 | 57 | 269 | 4.0 | 11.0 | 0.00 | 0.01 | 0.00 | 74 | 1004.0 |
| 20260509050109 | 57 | 244 | 3.0 | 10.0 | 0.00 | 0.01 | 0.00 | 73 | 1004.1 |
| 20260509044508 | 57 | 205 | 2.0 | 9.0 | 0.00 | 0.01 | 0.01 | 72 | 1004.0 |
| 20260509043007 | 58 | 232 | 3.0 | 9.0 | 0.00 | 0.01 | 0.01 | 71 | 1004.1 |
| 20260509041507 | 58 | 218 | 5.0 | 14.0 | 0.00 | 0.01 | 0.01 | 69 | 1004.0 |
| 20260509040005 | 57 | 245 | 5.0 | 14.0 | 0.00 | 0.01 | 0.01 | 69 | 1004.0 |
| 20260509034505 | 57 | 209 | 1.0 | 8.0 | 0.00 | 0.01 | 0.01 | 69 | 1004.3 |
| 20260509033003 | 55 | 210 | 4.0 | 7.0 | 0.00 | 0.01 | 0.01 | 68 | 1004.2 |
| 20260509031502 | 55 | 208 | 2.0 | 5.0 | 0.00 | 0.01 | 0.01 | 67 | 1004.3 |
| 20260509030001 | 55 | 207 | 2.0 | 5.0 | 0.00 | 0.01 | 0.01 | 66 | 1004.4 |
| 20260509024501 | 55 | 133 | 0.0 | 2.0 | 0.00 | 0.01 | 0.01 | 65 | 1004.3 |
| 20260509023103 | 55 | 133 | 0.0 | 3.0 | 0.00 | 0.01 | 0.01 | 64 | 1004.5 |
| 20260509021600 | 56 | 131 | 1.0 | 3.0 | 0.00 | 0.01 | 0.01 | 64 | 1004.5 |
| 20260509020100 | 56 | 123 | 1.0 | 3.0 | 0.00 | 0.01 | 0.01 | 63 | 1004.6 |
| 20260509014602 | 57 | 132 | 1.0 | 5.0 | 0.00 | 0.01 | 0.01 | 62 | 1004.5 |
| 20260509013105 | 57 | 107 | 1.0 | 4.0 | 0.00 | 0.01 | 0.01 | 62 | 1004.5 |
| 20260509011558 | 58 | 130 | 3.0 | 8.0 | 0.00 | 0.01 | 0.01 | 62 | 1004.4 |
| 20260509010058 | 59 | 119 | 3.0 | 8.0 | 0.00 | 0.01 | 0.01 | 61 | 1004.4 |
| 20260509004601 | 59 | 141 | 1.0 | 6.0 | 0.00 | 0.01 | 0.01 | 59 | 1004.3 |
| 20260509003055 | 60 | 136 | 2.0 | 5.0 | 0.00 | 0.01 | 0.01 | 58 | 1004.4 |
| 20260509001554 | 60 | 129 | 3.0 | 6.0 | 0.00 | 0.01 | 0.01 | 58 | 1004.5 |
| 20260509000055 | 60 | 109 | 3.0 | 6.0 | 0.00 | 0.01 | 0.01 | 57 | 1004.6 |
| 20260508234552 | 61 | 123 | 3.0 | 6.0 | 0.00 | 0.01 | 0.01 | 56 | 1004.7 |
| 20260508233057 | 61 | 80 | 3.0 | 7.0 | 0.00 | 0.01 | 0.01 | 56 | 1004.7 |
| 20260508231550 | 62 | 117 | 4.0 | 8.0 | 0.00 | 0.01 | 0.01 | 57 | 1004.8 |
| 20260508230057 | 62 | 110 | 5.0 | 10.0 | 0.00 | 0.01 | 0.01 | 57 | 1004.8 |
| 20260508224547 | 61 | 68 | 4.0 | 9.0 | 0.00 | 0.01 | 0.01 | 58 | 1004.9 |